Weather Roundup
Issued by NWS Chicago, IL

Home | Current Version | Previous Version | Text Only | Print | Product List | Glossary Off
Versions: 1 2 3 4 5 6 7 8 9 10 11 12 13 14 15 16 17 18 19 20 21 22 23 24 25 26 27 28 29 30 31 32 33 34 35 36 37 38 39 40 41 42 43 44 45 46 47 48 49 50

000
NZUS59 KLOT 260103
HRRLOT

CHICAGO AREA WEATHER ROUNDUP
NATIONAL WEATHER SERVICE CHICAGO/ROMEOVILLE IL
800 PM CDT TUE APR 25 2017

NOTE: "FAIR" INDICATES FEW OR NO CLOUDS BELOW 12,000 FEET WITH NO
SIGNIFICANT WEATHER AND/OR OBSTRUCTIONS TO VISIBILITY.

* THESE STATIONS ARE NOT UNDER NWS QUALITY CONTROL. THEY ALSO MAY NOT
  REPORT WEATHER SUCH AS PRECIPITATION OR FOG.

ILZ005-006-012>014-019>023-260200-
NORTHEAST ILLINOIS

CITY           SKY/WX    TMP DP  RH WIND       PRES   REMARKS
OHARE          MOCLDY    74  49  41 SE16      29.54R
MIDWAY         CLOUDY    76  51  41 SE10      29.55R
AURORA         CLOUDY    73  50  44 SE10      29.54R
LANSING*       CLEAR     72  55  55 SE7       29.57R
JOLIET*        MOCLDY    75  52  44 SE8       29.53S
WAUKEGAN       CLOUDY    57  48  72 SE8       29.56R
DUPAGE AIRPORT PTCLDY    73  51  46 SE14G22   29.53R
WHEELING       PTCLDY    70  51  51 SE9       29.56R
KANKAKEE*      MOCLDY    73  51  46 SE10      29.55S
MORRIS*        CLOUDY    73  51  44 SE13      29.52R
LEWIS AIRPORT* MOCLDY    73  55  53 SE13      29.54R
NORTHERLY ISL    N/A     60  51  72 S3          N/A
$$

WIZ051-052-058>065-066-070>072-260200-
SOUTHEAST WISCONSIN

CITY           SKY/WX    TMP DP  RH WIND       PRES   REMARKS
MILWAUKEE      CLOUDY    61  51  70 SE13      29.58S
KENOSHA*       CLOUDY    59  49  69 E8        29.57R
RACINE*        CLOUDY    57  48  72 SE10      29.59S
WAUKESHA       CLOUDY    64  50  59 E12       29.58R
WEST BEND      PTCLDY    59  50  72 E6        29.60R
$$

INZ001>003-010>013-019-020-260200-
NORTHWEST INDIANA

CITY           SKY/WX    TMP DP  RH WIND       PRES   REMARKS
GARY*          CLOUDY    75  48  38 SE12      29.57R
MICHIGAN CITY* NOT AVBL
RENSSELAER*    NOT AVBL
VALPARAISO     CLOUDY    72  54  53 SE8       29.59R
$$

LMZ740>746-260200-
SOUTHERN LAKE MICHIGAN

STATION/POSITION TIME  SKY/WX   TEMP WIND        PRES    VSBY
                                AIR  DIR/SP/G
                 (UTC)          (F)  (DEG/KT/KT) (MB)    (MI)
HARRISON CRIB    0030            65  140/ 19/ 20   N/A
BURNHAM HARBOR   0100            60  110/  5/  5   N/A
CALUMET HARBOR   0030            75  140/  9/ 14 1000.5R
BURNS HARBOR     0040            74  130/  9/ 17 1001.7R
MICHIGAN CITY    0040            73  120/  7/ 10   N/A
$$

ABBREVIATIONS USED IN REMARKS
   TC - TEMPERATURE IN CELSIUS
  WCI - WIND CHILL INDEX
   HX - HEAT INDEX
  VSB - VISIBILITY
$$




USA.gov is the U.S. government's official web portal to all federal, state and local government web resources and services.